Location: Jetmore Oil Field
(38.1181°N, 99.9337°W)
Time: 06:31:57
(UTC+00:00)

STARLINK-27 - Pass Details

Date: 17 February 2020
Orbit: 528 x 530 km, 53.0° (Epoch: 31 March)

Event Time Altitude Azimuth Distance (km) Brightness Sun altitude
Rises 01:37:58 0° 218° (SW) 2,652 7.7 -16.1°
Reaches altitude 10° 01:40:11 10° 215° (SW) 1,767 6.7 -16.6°
Maximum altitude 01:44:08 60° 135° (SE) 606 3.6 -17.3°
Enters shadow 01:45:22 40° 74° (ENE) 796 3.9 -17.6°
